Regional Weather Roundup
Issued by NWS

Home | Current Version | Previous Version | Text Only | Print | Product List | Glossary Off
Versions: 1 2 3 4 5 6 7 8 9 10 11 12 13 14 15 16 17 18 19 20 21 22 23 24 25 26 27 28 29 30 31 32 33 34 35 36 37 38 39 40 41 42 43 44 45 46 47 48 49 50

000
ASUS43 KBIS 282210
RWRND

NORTH DAKOTA REGIONAL WEATHER ROUNDUP
NATIONAL WEATHER SERVICE BISMARCK ND
400 PM CST SUN DEC 28 2014

NOTE: "FAIR" INDICATES FEW OR NO CLOUDS BELOW 12,000 FEET WITH NO
SIGNIFICANT WEATHER AND/OR OBSTRUCTIONS TO VISIBILITY.


NDZ001>003-009>011-017-282300-
NORTHWEST NORTH DAKOTA

CITY           SKY/WX    TMP DP  RH WIND       PRES   REMARKS
WILLISTON      CLOUDY    10   0  63 NE13      30.24R WCI  -5
MINOT          CLOUDY     2  -4  76 N7        30.30R WCI -11
MINOT AFB      MOCLDY     0  -3  86 N8        30.31R WCI -14
$$

NDZ018>021-031>035-040>046-282300-
SOUTHWEST NORTH DAKOTA

CITY           SKY/WX    TMP DP  RH WIND       PRES   REMARKS
BISMARCK       FLURRIES   8   4  83 E12       30.24R WCI  -7
DICKINSON      LGT SNOW  15   9  76 NE15      30.09R WCI   0
GARRISON         N/A      6   1  80 NE8       30.24R WCI  -7
HETTINGER ARPT LGT SNOW  20  15  81 E13       30.06R WCI   7
$$

NDZ004>008-012>016-024-026-027-054-282300-
NORTHEAST NORTH DAKOTA

CITY           SKY/WX    TMP DP  RH WIND       PRES   REMARKS
GRAND FORKS    CLEAR      0  -7  72 N10       30.38R WCI -16
GRND FRKS AFB  CLEAR     -1  -7  73 N10       30.38R WCI -17
DEVILS LAKE    CLEAR     -2 -11  65 N7        30.31R WCI -16
$$

NDZ022-023-025-028>030-036>039-047>053-282300-
SOUTHEAST NORTH DAKOTA

CITY           SKY/WX    TMP DP  RH WIND       PRES   REMARKS
FARGO          CLEAR      4  -6  63 N17       30.34R WCI -16
JAMESTOWN      CLOUDY     2  -5  72 N10       30.28R WCI -14
$$




USA.gov is the U.S. government's official web portal to all federal, state and local government web resources and services.